Regional Weather Roundup
Issued by NWS

Home | Current Version | Previous Version | Graphics & Text | Print | Product List | Glossary On
Versions: 1 2 3 4 5 6 7 8 9 10 11 12 13 14 15 16 17 18 19 20 21 22 23 24 25 26 27 28 29 30 31 32 33 34 35 36 37 38 39 40 41 42 43 44 45 46 47 48 49 50
108
ASUS45 KTFX 301410
RWRMT
MONTANA REGIONAL WEATHER ROUNDUP
NATIONAL WEATHER SERVICE GREAT FALLS MT
800 AM MDT SAT JUL 30 2016

NOTE: "FAIR" INDICATES FEW OR NO CLOUDS BELOW 12000 FEET WITH NO
SIGNIFICANT WEATHER AND/OR OBSTRUCTIONS TO VISIBILITY.

MTZ001>007-043-301500-
WEST OF THE DIVIDE

CITY           SKY/WX    TMP DP  RH WIND       PRES   REMARKS
KALISPELL      SUNNY     65  56  72 NE9       29.82S
MISSOULA       SUNNY     63  48  58 CALM      29.89S
BUTTE          SUNNY     56  42  59 SE3       30.03S
MULLAN PASS    SUNNY     65  40  39 SW6       30.01R
DEER LODGE       N/A     63  45  51 CALM      29.99S
EUREKA           N/A     70  54  56 CALM      29.81
HAMILTON         N/A     64  46  52 CALM      29.91R
LIBBY            N/A     61  48  63 CALM      29.81S
PLAINS           N/A     60  50  69 CALM      29.84S
RONAN            N/A     65  54  67 CALM      29.89S
$$

MTZ008-052>055-301500-
SOUTHWEST MONTANA

CITY           SKY/WX    TMP DP  RH WIND       PRES   REMARKS
BOZEMAN        SUNNY     63  52  67 CALM      29.95S
DILLON         SUNNY     57  45  64 SW8       30.00R
W YELLOWSTONE  SUNNY     50  39  66 CALM      30.13S
THREE FORKS      N/A     62  58  87 CALM      29.95R
TWIN BRIDGES     N/A     59  43  55 SE6       29.99R
$$

MTZ009-010-012-014-046-048-049-054-301500-
EAST SLOPES AND CENTRAL MONTANA

CITY           SKY/WX    TMP DP  RH WIND       PRES   REMARKS
CUT BANK       SUNNY     64  52  64 CALM      29.83F
GREAT FALLS    PTSUNNY   71  49  45 S12       29.84S
MALMSTROM AFB  MOSUNNY   68  52  56 S3        29.84F
HELENA         SUNNY     63  49  60 VRB3      29.91R
CONRAD           N/A     62  60  93 CALM      29.86F
$$

MTZ011-013-016-021-045-047-050-051-301500-
NORTH CENTRAL MONTANA

CITY           SKY/WX    TMP DP  RH WIND       PRES   REMARKS
HAVRE          SUNNY     66  58  75 NE5       29.79F
CHINOOK          N/A     66  61  82 E8        29.80F
$$

MTZ017>020-022>027-061-062-301500-
NORTHEAST MONTANA

CITY           SKY/WX    TMP DP  RH WIND       PRES   REMARKS
GLASGOW        SUNNY     66  55  67 E9        29.86F
JORDAN           N/A     66  57  72 E6        29.87F
SIDNEY         SUNNY     61  52  72 SE3       29.90F
WOLF POINT     SUNNY     63  54  72 E7        29.88F
PLENTYWOOD       N/A     66  57  72 E3        29.90F
POPLAR           N/A     64  55  72 CALM      29.89F
SCOBEY           N/A     59  46  61 CALM      29.89F
$$

MTZ028>42-056>058-301500-
SOUTHCENTRAL AND SOUTHEAST MONTANA

CITY           SKY/WX    TMP DP  RH WIND       PRES   REMARKS
BAKER          SUNNY     69  58  67 E6        29.93S
BILLINGS       MOSUNNY   67  54  63 CALM      29.90S
LIVINGSTON     SUNNY     62  48  60 NW5       29.96S
MILES CITY     SUNNY     68  52  56 NE7       29.88S
EKALAKA          N/A     73  57  57 E6        29.92F
FORSYTH          N/A     68  54  60 E6        29.87S
LAUREL           N/A     66  52  60 CALM      29.89F
ROUNDUP          N/A     63  51  64 CALM      29.83S
$$

REGIONAL REPORTS...DAKOTAS

CITY           SKY/WX    TMP DP  RH WIND       PRES   REMARKS
WILLISTON      SUNNY     66  58  75 CALM      29.90F
MINOT          SUNNY     73  61  65 S12       29.89F
DICKINSON      SUNNY     61  60  97 S3        29.91S
CROSBY           N/A     64  64 100 S9        29.92S
WATFORD CITY     N/A    N/A N/A N/A MISG        N/A
BISMARCK       PTSUNNY   66  64  93 SE9       29.92F
GRAND FORKS    PTSUNNY   70  63  78 SE12      29.95F
FARGO          SUNNY     72  62  71 S5        29.98S
BUFFALO SD       N/A     70  59  68 E5        29.87S
RAPID CITY     SUNNY     64  59  83 VRB3      29.94F
$$

REGIONAL REPORTS...WYOMING/IDAHO/WASHINGTON

CITY           SKY/WX    TMP DP  RH WIND       PRES   REMARKS
GILLETTE       SUNNY     70  55  59 SW7       29.97F
SHERIDAN       SUNNY     69  49  48 CALM      29.92F
BUFFALO WY     SUNNY     73  50  44 SW3       30.00F
CODY           SUNNY     63  48  59 CALM      30.00S
YELLOWSTONE LA   N/A     50  45  83 CALM      30.21S
IDAHO FALLS    SUNNY     61  48  62 CALM      29.99R
SALMON         SUNNY     57  45  62 CALM      29.95S
BOISE          MOSUNNY   74  38  27 SE6       29.83S HAZE
SPOKANE        MOSUNNY   67  47  48 S13G22    29.77S
$$

REGIONAL REPORTS...ALBERTA

CITY           SKY/WX    TMP DP  RH WIND       PRES   REMARKS
EDMONTON       SUNNY     57  55  94 W3        29.79S
CALGARY        MOSUNNY   59  50  72 W7        29.81R
LETHBRIDGE     PTSUNNY   64  57  77 S12G28    29.80R
MEDICINE HAT   PTSUNNY   77  59  53 SW6       29.72F
WATERTON GATE    N/A     63  52  67 SW1         N/A
MILK RIVER       N/A     66  54  63 W7          N/A
ONEFOUR          N/A     66  55  68 E10         N/A
$$

REGIONAL REPORTS...SASKATCHEWAN

CITY           SKY/WX    TMP DP  RH WIND       PRES   REMARKS
SWIFT CURRENT  SUNNY     66  59  77 S8        29.83F
REGINA         MOSUNNY   63  59  88 SE3       29.88R
SASKATOON      PTSUNNY   66  61  82 S3        29.82S
CYPRESS HILLS    N/A     64  54  68 S8          N/A
VAL MARIE        N/A     66  57  72 SE5         N/A
ROCKGLEN         N/A     64  55  72 S6          N/A
ASSINIBOIA       N/A     63  59  88 CALM        N/A
$$




USA.gov is the U.S. government's official web portal to all federal, state and local government web resources and services.